Location: Unspecified
(0.0000°N, 0.0000°E)
Time: 03:19:23
(UTC+01:00)

Cosmos 1812 Rocket - Visible Passes

Search period start: 20 December 2014 00:00
Search period end: 30 December 2014 00:00
Orbit: 607 x 633 km, 82.5° (Epoch: 19 December)

Date Brightness Start Highest point End Pass type
(mag) Time Alt. Az. Time Alt. Az. Time Alt. Az.
20 Dec 3.8 05:42:50 10° SSW 05:46:59 45° W 05:50:44 12° NNW visible
21 Dec 6.4 04:24:40 10° SE 04:27:05 15° E 04:29:09 11° ENE visible
21 Dec 4.9 06:01:33 10° SW 06:04:41 20° W 06:06:12 17° WNW visible
22 Dec 5.0 04:40:53 10° SSE 04:44:48 33° E 04:45:00 33° E visible
23 Dec 4.4 04:58:11 10° S 05:01:07 43° S 05:01:07 43° S visible
24 Dec 5.4 05:16:09 10° SSW 05:17:28 18° SSW 05:17:28 18° SSW visible
